When you browse on this site, cookies collect data to enhance your experience and personalize the content and advertising you see.
Visit our Privacy Policy to learn more. By continuing to use the site, you agree to this use of cookies and data.
  • In United Kingdom
  • List of Countries
  • For 7 days
  • Water Temperature
  • Weather Map
  • Weather Widgets
  • user-avatar
    Login

    Hourly Weather Shusha

    Today, 15 September, Sunday

    Time Temperature Precipitation Wind Pressure Humidity
    00:00 +13°C° 0 mm 1 mps 662 mmHg 70%
    01:00 +13°C° 0 mm 1 mps 662 mmHg 70%
    02:00 +13°C° 0 mm 1 mps 662 mmHg 71%
    03:00 +12°C° 0 mm 1 mps 661 mmHg 72%
    04:00 +12°C° 0 mm 1 mps 661 mmHg 72%
    05:00 +12°C° 0 mm 1 mps 662 mmHg 72%
    06:00 +12°C° 0 mm 1 mps 662 mmHg 72%
    07:00 +14°C° 0 mm 1 mps 662 mmHg 66%
    08:00 +16°C° 0 mm 1 mps 663 mmHg 60%
    09:00 +19°C° 0 mm 1 mps 663 mmHg 53%
    10:00 +19°C° 0 mm 2 mps 663 mmHg 52%
    11:00 +20°C° 0 mm 2 mps 663 mmHg 50%
    12:00 +21°C° 0 mm 3 mps 663 mmHg 48%
    13:00 +21°C° 0 mm 3 mps 663 mmHg 49%
    14:00 +21°C° 0 mm 3 mps 662 mmHg 49%
    15:00 +21°C° 0 mm 2 mps 662 mmHg 49%
    16:00 +20°C° 0 mm 2 mps 662 mmHg 54%
    17:00 +20°C° 0 mm 1 mps 662 mmHg 58%
    18:00 +18°C° 0 mm 1 mps 661 mmHg 63%
    19:00 +18°C° 0 mm 1 mps 662 mmHg 64%
    20:00 +18°C° 0 mm 1 mps 663 mmHg 65%
    21:00 +18°C° 0 mm 1 mps 663 mmHg 67%
    22:00 +16°C° 0.2 mm 1 mps 663 mmHg 70%
    23:00 +16°C° 0.2 mm 1 mps 663 mmHg 73%

    Tomorrow, 16 September, Monday

    Time Temperature Precipitation Wind Pressure Humidity
    00:00 +15°C° 0.2 mm 1 mps 663 mmHg 76%
    01:00 +15°C° 0.3 mm 1 mps 663 mmHg 78%
    02:00 +15°C° 0.3 mm 1 mps 663 mmHg 80%
    03:00 +14°C° 0.3 mm 1 mps 663 mmHg 82%
    04:00 +14°C° 0.1 mm 1 mps 663 mmHg 82%
    05:00 +14°C° 0.1 mm 1 mps 663 mmHg 82%
    06:00 +14°C° 0.1 mm 1 mps 662 mmHg 82%
    07:00 +15°C° 0 mm 1 mps 663 mmHg 75%
    08:00 +18°C° 0 mm 1 mps 663 mmHg 69%
    09:00 +20°C° 0 mm 1 mps 663 mmHg 62%
    10:00 +20°C° 0 mm 2 mps 663 mmHg 59%
    11:00 +21°C° 0 mm 2 mps 663 mmHg 56%
    12:00 +22°C° 0 mm 3 mps 662 mmHg 53%
    13:00 +22°C° 0 mm 3 mps 662 mmHg 53%
    14:00 +23°C° 0 mm 2 mps 661 mmHg 53%
    15:00 +23°C° 0 mm 2 mps 661 mmHg 53%
    16:00 +21°C° 0 mm 2 mps 660 mmHg 59%
    17:00 +19°C° 0 mm 2 mps 660 mmHg 66%
    18:00 +19°C° 0 mm 1 mps 659 mmHg 73%
    19:00 +18°C° 0 mm 1 mps 659 mmHg 76%
    20:00 +18°C° 0 mm 1 mps 659 mmHg 79%
    21:00 +16°C° 0 mm 1 mps 659 mmHg 82%
    22:00 +16°C° 0 mm 1 mps 659 mmHg 81%
    23:00 +16°C° 0 mm 1 mps 659 mmHg 80%

    Day after tomorrow, 17 September, Tuesday

    Time Temperature Precipitation Wind Pressure Humidity
    00:00 +16°C° 0 mm 1 mps 659 mmHg 79%
    01:00 +16°C° 0 mm 1 mps 659 mmHg 78%
    02:00 +15°C° 0 mm 1 mps 658 mmHg 77%
    03:00 +15°C° 0 mm 1 mps 658 mmHg 75%
    04:00 +15°C° 0 mm 1 mps 658 mmHg 73%
    05:00 +15°C° 0 mm 1 mps 658 mmHg 71%
    06:00 +16°C° 0 mm 1 mps 658 mmHg 68%
    07:00 +19°C° 0 mm 1 mps 658 mmHg 61%
    08:00 +21°C° 0 mm 1 mps 659 mmHg 53%
    09:00 +23°C° 0 mm 1 mps 660 mmHg 46%
    10:00 +25°C° 0 mm 2 mps 659 mmHg 43%
    11:00 +26°C° 0 mm 2 mps 659 mmHg 40%
    12:00 +27°C° 0 mm 2 mps 659 mmHg 36%
    13:00 +28°C° 0 mm 2 mps 659 mmHg 35%
    14:00 +28°C° 0 mm 3 mps 658 mmHg 33%
    15:00 +29°C° 0 mm 3 mps 658 mmHg 32%
    16:00 +26°C° 0 mm 2 mps 657 mmHg 41%
    17:00 +24°C° 0 mm 1 mps 656 mmHg 50%
    18:00 +22°C° 0 mm 1 mps 656 mmHg 59%
    19:00 +21°C° 0 mm 1 mps 656 mmHg 59%
    20:00 +21°C° 0 mm 1 mps 657 mmHg 59%
    21:00 +20°C° 0 mm 1 mps 658 mmHg 60%
    22:00 +19°C° 0 mm 1 mps 658 mmHg 65%
    23:00 +18°C° 0 mm 1 mps 658 mmHg 71%

    18 September, Wednesday

    Time Temperature Precipitation Wind Pressure Humidity
    00:00 +16°C° 0 mm 1 mps 658 mmHg 77%
    01:00 +16°C° 0 mm 1 mps 658 mmHg 76%
    02:00 +16°C° 0 mm 1 mps 659 mmHg 75%
    03:00 +16°C° 0 mm 1 mps 659 mmHg 74%
    04:00 +16°C° 0 mm 1 mps 659 mmHg 75%
    05:00 +16°C° 0 mm 1 mps 659 mmHg 75%
    06:00 +15°C° 0 mm 1 mps 660 mmHg 76%
    07:00 +19°C° 0 mm 1 mps 661 mmHg 68%
    08:00 +21°C° 0 mm 1 mps 662 mmHg 60%
    09:00 +23°C° 0 mm 1 mps 663 mmHg 52%
    10:00 +23°C° 0 mm 2 mps 663 mmHg 49%
    11:00 +24°C° 0 mm 3 mps 663 mmHg 46%
    12:00 +25°C° 0 mm 3 mps 663 mmHg 43%
    13:00 +25°C° 0 mm 3 mps 662 mmHg 42%
    14:00 +26°C° 0 mm 3 mps 662 mmHg 42%
    15:00 +26°C° 0 mm 3 mps 662 mmHg 42%
    16:00 +24°C° 0 mm 2 mps 661 mmHg 46%
    17:00 +23°C° 0 mm 2 mps 661 mmHg 51%
    18:00 +21°C° 0 mm 1 mps 661 mmHg 56%
    19:00 +21°C° 0 mm 1 mps 661 mmHg 57%
    20:00 +20°C° 0 mm 1 mps 661 mmHg 59%
    21:00 +19°C° 0 mm 1 mps 661 mmHg 61%
    22:00 +19°C° 0 mm 1 mps 661 mmHg 61%
    23:00 +19°C° 0 mm 1 mps 661 mmHg 62%

    19 September, Thursday

    Time Temperature Precipitation Wind Pressure Humidity
    00:00 +18°C° 0 mm 1 mps 661 mmHg 62%
    01:00 +18°C° 0 mm 1 mps 661 mmHg 62%
    02:00 +18°C° 0 mm 1 mps 661 mmHg 61%
    03:00 +16°C° 0 mm 1 mps 661 mmHg 60%
    04:00 +16°C° 0 mm 1 mps 660 mmHg 60%
    05:00 +16°C° 0 mm 1 mps 660 mmHg 59%
    06:00 +16°C° 0 mm 1 mps 660 mmHg 58%
    07:00 +19°C° 0 mm 1 mps 661 mmHg 53%
    08:00 +21°C° 0 mm 1 mps 662 mmHg 48%
    09:00 +23°C° 0 mm 1 mps 662 mmHg 43%
    10:00 +24°C° 0 mm 2 mps 662 mmHg 42%
    11:00 +25°C° 0 mm 2 mps 662 mmHg 41%
    12:00 +26°C° 0 mm 3 mps 662 mmHg 40%
    13:00 +26°C° 0 mm 3 mps 662 mmHg 40%
    14:00 +26°C° 0 mm 3 mps 661 mmHg 41%
    15:00 +26°C° 0 mm 3 mps 661 mmHg 42%
    16:00 +25°C° 0 mm 2 mps 661 mmHg 47%
    17:00 +23°C° 0 mm 1 mps 661 mmHg 53%
    18:00 +22°C° 0 mm 1 mps 660 mmHg 58%
    19:00 +21°C° 0 mm 1 mps 660 mmHg 60%
    20:00 +21°C° 0 mm 1 mps 661 mmHg 62%
    21:00 +20°C° 0 mm 1 mps 661 mmHg 63%
    22:00 +19°C° 0 mm 1 mps 661 mmHg 65%
    23:00 +19°C° 0 mm 1 mps 661 mmHg 67%

    20 September, Friday

    Time Temperature Precipitation Wind Pressure Humidity
    00:00 +18°C° 0 mm 1 mps 660 mmHg 69%
    01:00 +18°C° 0 mm 1 mps 660 mmHg 71%
    02:00 +16°C° 0 mm 1 mps 660 mmHg 73%
    03:00 +16°C° 0 mm 1 mps 659 mmHg 75%
    04:00 +14°C° 0 mm 0 mps 659 mmHg 76%
    05:00 +14°C° 0 mm 0 mps 659 mmHg 76%
    06:00 +14°C° 0 mm 0 mps 659 mmHg 77%
    07:00 +18°C° 0 mm 1 mps 660 mmHg 71%
    08:00 +19°C° 0 mm 1 mps 660 mmHg 65%
    09:00 +20°C° 0 mm 2 mps 661 mmHg 59%
    10:00 +21°C° 0 mm 2 mps 661 mmHg 57%
    11:00 +23°C° 0 mm 2 mps 660 mmHg 54%
    12:00 +24°C° 0 mm 3 mps 660 mmHg 52%
    13:00 +25°C° 0 mm 3 mps 660 mmHg 51%
    14:00 +25°C° 0 mm 2 mps 659 mmHg 50%
    15:00 +25°C° 0 mm 2 mps 659 mmHg 50%
    16:00 +24°C° 0 mm 2 mps 658 mmHg 56%
    17:00 +22°C° 0 mm 1 mps 658 mmHg 61%
    18:00 +21°C° 0 mm 1 mps 657 mmHg 67%
    19:00 +20°C° 0 mm 1 mps 657 mmHg 68%
    20:00 +20°C° 0 mm 1 mps 657 mmHg 69%
    21:00 +19°C° 0 mm 1 mps 657 mmHg 70%
    22:00 +19°C° 0 mm 1 mps 657 mmHg 66%
    23:00 +19°C° 0 mm 1 mps 657 mmHg 62%
    Show more